[[{"header":{"parameterUnit":"m.s-1","parameterCategory":1,"la1":30.2991,"la2":30.254,"lo1":-89.0895,"lo2":-89.0444,"dy":0.0017,"dx":0.0017,"nx":28,"ny":28,"refTime":"2024-03-28T03:00:00:Z","depth":0,"parameterNumber":2,"parameterNumberName":"U-component_of_WINDS"},"data":[0,0,0,0,0,0,0,0,0,0,0,0,0,0,0,0,0,0,0,0,0,0,0,0,0,0,0,0,0,0,0,0,0,0,0,0,0,0,0,0,0,0,0,0,0,0,0,0,0,0,0,0,0,0,0,0,0,0,-0.9101,-0.9102,0,-0.9158,-0.9159,-0.9159,-0.9109,-0.9106,-0.9104,-0.9102,-0.9162,-0.9166,-0.9169,0,0,0,0,0,0,0,0,0,0,0,0,0,-0.8951,-0.8954,-0.9101,-0.9102,-0.9103,-0.9158,-0.9159,-0.9159,-0.9109,-0.9106,-0.9104,-0.9102,-0.9161,-0.9165,-0.9169,0,0,0,0,0,0,0,0,0,0,0,0,0,-0.9013,-0.8955,-0.9101,-0.9084,-0.9083,-0.9158,-0.9159,-0.916,-0.9109,-0.9106,-0.9103,-0.91,-0.916,-0.9165,-0.917,-0.9265,0,0,-0.9186,-0.9188,0,0,0,0,0,0,0,0,-0.901,-0.9019,-0.9086,-0.9085,-0.9084,-0.9123,-0.9127,-0.9195,-0.911,-0.91,-0.9102,-0.9099,-0.9152,-0.9157,-0.9175,-0.9268,-0.927,-0.9187,-0.919,-0.9192,-0.9194,0,0,0,0,0,0,0,-0.9005,-0.9016,-0.9124,-0.9087,-0.9086,-0.9074,-0.908,-0.914,-0.9142,-0.91,-0.9097,-0.9104,-0.9151,-0.917,-0.9176,-0.9271,-0.9186,-0.9191,-0.9194,-0.9196,-0.9445,-0.9449,0,0,0,0,0,0,-0.9003,-0.9013,-0.9122,-0.9125,-0.9039,-0.9079,-0.9085,-0.9114,-0.9142,-0.9143,-0.9107,-0.9101,-0.9163,-0.917,-0.9178,-0.9292,-0.9192,-0.9197,-0.92,-0.9442,-0.9446,-0.945,0,0,0,0,0,0,-0.9,-0.9013,-0.912,-0.9068,-0.9081,-0.9085,-0.9118,-0.9117,-0.9136,-0.9146,-0.9147,-0.9126,-0.916,-0.9171,-0.9244,-0.9294,-0.9199,-0.9204,-0.9438,-0.9443,-0.9448,-0.9521,0,0,0,0,0,0,-0.8995,-0.9012,-0.9048,-0.9069,-0.9084,-0.9184,-0.9121,-0.912,-0.9145,-0.9139,-0.9165,-0.9166,-0.9159,-0.9236,-0.9249,-0.9299,-0.9208,-0.9434,-0.944,-0.9446,-0.9514,-0.9528,-0.9539,0,0,0,0,0,-0.899,-0.9066,-0.905,-0.9063,-0.9128,-0.9187,-0.9196,-0.9185,-0.9149,-0.9185,-0.9192,-0.9165,-0.9285,-0.9244,-0.9258,-0.9311,-0.943,-0.9438,-0.9446,-0.9508,-0.9525,-0.9539,0,0,0,0,0,0,-0.9051,-0.9069,-0.9051,-0.9136,-0.916,-0.9179,-0.9224,-0.9203,-0.9239,-0.9232,-0.9218,-0.9224,-0.9302,-0.9313,-0.9267,-0.9404,-0.9352,-0.9363,-0.9395,-0.9411,-0.9423,-0.942,-0.9213,0,0,0,0,0,-0.9074,-0.912,-0.9133,-0.9207,-0.922,-0.922,-0.9245,-0.9235,-0.926,-0.9271,-0.9283,-0.9309,-0.9352,-0.9382,-0.9422,-0.9514,-0.952,-0.9557,-0.957,-0.958,-0.9591,-0.9642,-0.9659,-0.9475,-0.9475,-0.9475,0,0,-0.9123,-0.9138,-0.9168,-0.9219,-0.9237,-0.9286,-0.9229,-0.9283,-0.9319,-0.9279,-0.9349,-0.9359,-0.9387,-0.9471,-0.9508,-0.9482,-0.9643,-0.959,-0.9599,-0.9603,-0.9652,-0.9669,-0.9684,-0.9481,-0.948,-0.9479,0,0,-0.9237,-0.9252,-0.9316,-0.9335,-0.9362,-0.9362,-0.9377,-0.9399,-0.9404,-0.9474,-0.9445,-0.9488,-0.9563,-0.9585,-0.9606,-0.9727,-0.9704,-0.9741,-0.9809,-0.9858,-0.9873,-0.9886,-0.9931,-0.9947,-0.9751,-0.9751,-0.9751,0,-0.9294,-0.9366,-0.9351,-0.9408,-0.9432,-0.9396,-0.9462,-0.9481,-0.9521,-0.9538,-0.9508,-0.9603,-0.9619,-0.9708,-0.9737,-0.9755,-0.9773,-0.9739,-0.9872,-0.9885,-0.9896,-0.994,-0.9956,-0.9755,-0.9755,-0.9754,-0.9754,0,-0.9436,-0.9486,-0.9534,-0.9574,-0.9602,-0.9663,-0.9658,-0.969,-0.9677,-0.968,-0.9752,-0.977,-0.9814,-0.9834,-0.9822,-0.9921,-0.9905,-0.9874,-0.9821,-0.9919,-0.9959,-0.9975,-0.9762,-0.976,-0.9759,-0.9758,0,0,-0.9592,-0.9622,-0.964,-0.9658,-0.9685,-0.9724,-0.9783,-0.9826,-0.9854,-0.9882,-0.9932,-0.9996,-0.9968,-0.9991,-0.9981,-1.0024,-1.0122,-0.9988,-0.9988,-1.0014,-1.0235,-1.026,-1.0279,-1.0106,-1.0109,-1.0111,-1.0233,0,-0.9708,-0.9811,-0.9799,-0.9897,-0.9944,-0.9911,-0.9963,-0.9986,-0.999,-1.003,-1.0034,-1.0081,-1.0039,-1.0053,-1.0094,-1.0101,-1.0167,-1.0092,-1.0154,-1.0156,-1.015,-1.03,-1.0327,-1.0441,-1.0249,-1.0251,-1.0253,0,-0.9859,-0.9892,-0.9995,-1.0016,-1.0035,-1.0082,-1.0121,-1.0159,-1.0185,-1.0185,-1.0211,-1.0193,-1.0253,-1.0198,-1.0281,-1.0231,-1.0255,-1.0262,-1.0266,-1.0274,-1.0213,-1.0314,-1.0477,-1.0495,-1.0278,-1.0276,-1.0274,0,-0.9965,-1.0036,-1.0107,-1.0122,-1.0148,-1.0182,-1.0194,-1.0216,-1.0243,-1.0277,-1.0294,-1.0334,-1.0357,-1.0389,-1.0383,-1.0343,-1.0468,-1.0412,-1.0471,-1.0472,-1.0502,-1.05,-1.0674,-1.0513,-1.0513,-1.0513,-1.0512,0,-1.0098,-1.0163,-1.0155,-1.0199,-1.027,-1.0256,-1.0328,-1.0336,-1.0356,-1.0402,-1.0374,-1.0418,-1.0406,-1.0449,-1.0444,-1.0515,-1.0525,-1.0527,-1.0526,-1.0531,-1.0531,-1.0549,-1.0542,-1.0517,-1.0516,-1.0515,-1.0514,0,-1.023,-1.0227,-1.0303,-1.032,-1.0326,-1.0379,-1.0394,-1.0436,-1.0437,-1.0495,-1.0508,-1.051,-1.056,-1.0556,-1.0611,-1.0608,-1.0696,-1.0684,-1.0688,-1.0686,-1.0747,-1.0742,-1.0939,-1.0965,-1.0786,-1.0787,-1.0789,0,-1.0317,-1.0366,-1.0389,-1.0417,-1.0432,-1.0478,-1.0505,-1.0493,-1.0522,-1.0555,-1.0593,-1.0639,-1.0676,-1.0757,-1.0764,-1.0806,-1.0796,-1.0862,-1.0803,-1.0807,-1.08,-1.0798,-1.0804,-1.0875,-1.0877,-1.0879,-1.088,0,-1.0471,-1.0467,-1.0507,-1.0547,-1.058,-1.0611,-1.0639,-1.0663,-1.0654,-1.0689,-1.0738,-1.0767,-1.0823,-1.0871,-1.0911,-1.0924,-1.0902,-1.0898,-1.0915,-1.0922,-1.0924,-1.0926,-1.0723,-1.0895,-1.0893,-1.0892,-1.0891,-1.0891,-1.0585,-1.0627,-1.0651,-1.0696,-1.0716,-1.0742,-1.0783,-1.0789,-1.083,-1.0875,-1.0865,-1.0922,-1.0946,-1.0998,-1.1015,-1.1059,-1.1035,-1.1059,-1.1065,-1.1072,-1.108,-1.0914,-1.1066,-1.1066,-1.1065,-1.1065,-1.1064,0,-1.074,-1.0753,-1.0795,-1.0835,-1.0871,-1.0845,-1.0874,-1.0907,-1.0957,-1.0981,-1.1018,-1.1076,-1.1121,-1.1131,-1.1175,-1.1209,-1.12,-1.1221,-1.122,-1.1223,-1.1097,-1.108,-1.1228,-1.1228,-1.1228,-1.1228,-1.1227,-1.1227,-1.0825,-1.0897,-1.0895,-1.0976,-1.0988,-1.1044,-1.1063,-1.1088,-1.1107,-1.1173,-1.1211,-1.1216,-1.1235,-1.128,-1.1321,-1.1323,-1.1341,-1.1367,-1.1366,-1.1248,-1.1232,-1.1217,-1.12,-1.1371,-1.1371,-1.1488,-1.1489,-1.149]},{"header":{"parameterUnit":"m.s-1","parameterCategory":1,"la1":30.2991,"la2":30.254,"lo1":-89.0895,"lo2":-89.0444,"dy":0.0017,"dx":0.0017,"nx":28,"ny":28,"refTime":"2024-03-28T03:00:00:Z","depth":0,"parameterNumber":3,"parameterNumberName":"V-component_of_WINDS"},"data":[0,0,0,0,0,0,0,0,0,0,0,0,0,0,0,0,0,0,0,0,0,0,0,0,0,0,0,0,0,0,0,0,0,0,0,0,0,0,0,0,0,0,0,0,0,0,0,0,0,0,0,0,0,0,0,0,0,0,-2.5308,-2.5309,0,-2.5405,-2.5406,-2.5407,-2.5395,-2.5393,-2.5392,-2.539,-2.5487,-2.549,-2.5494,0,0,0,0,0,0,0,0,0,0,0,0,0,-2.5112,-2.5116,-2.5308,-2.5309,-2.5311,-2.5405,-2.5406,-2.5407,-2.5395,-2.5393,-2.5391,-2.539,-2.5485,-2.549,-2.5495,0,0,0,0,0,0,0,0,0,0,0,0,0,-2.5202,-2.5117,-2.5308,-2.5316,-2.5318,-2.5404,-2.5406,-2.5408,-2.5396,-2.5393,-2.5391,-2.5389,-2.5484,-2.549,-2.5495,-2.558,0,0,-2.5514,-2.5517,0,0,0,0,0,0,0,0,-2.5197,-2.5209,-2.5314,-2.5316,-2.5318,-2.5385,-2.5372,-2.5465,-2.5396,-2.5366,-2.539,-2.5388,-2.5455,-2.5463,-2.5486,-2.5584,-2.5588,-2.5514,-2.5518,-2.5521,-2.5522,0,0,0,0,0,0,0,-2.519,-2.5205,-2.5346,-2.5315,-2.5318,-2.5314,-2.5324,-2.539,-2.5422,-2.5368,-2.5368,-2.5379,-2.5455,-2.548,-2.5488,-2.559,-2.5514,-2.552,-2.5523,-2.5526,-2.5762,-2.5765,0,0,0,0,0,0,-2.5183,-2.52,-2.5343,-2.5349,-2.525,-2.532,-2.5331,-2.5366,-2.5421,-2.5428,-2.5381,-2.5379,-2.5471,-2.5481,-2.5492,-2.5594,-2.5521,-2.5526,-2.553,-2.576,-2.5763,-2.5766,0,0,0,0,0,0,-2.5178,-2.5195,-2.5339,-2.5274,-2.5292,-2.5326,-2.5365,-2.5369,-2.5394,-2.5431,-2.5437,-2.5401,-2.547,-2.5483,-2.5558,-2.5598,-2.5529,-2.5534,-2.5756,-2.5761,-2.5764,-2.58,0,0,0,0,0,0,-2.5173,-2.5194,-2.5227,-2.5275,-2.5296,-2.5405,-2.5367,-2.5373,-2.5405,-2.5402,-2.5451,-2.5457,-2.5469,-2.5549,-2.5564,-2.5605,-2.5539,-2.5753,-2.5758,-2.5763,-2.5796,-2.5805,-2.5813,0,0,0,0,0,-2.5166,-2.5232,-2.5228,-2.5246,-2.5338,-2.5407,-2.5419,-2.5432,-2.5408,-2.5441,-2.5465,-2.5456,-2.5591,-2.5557,-2.5574,-2.5617,-2.5751,-2.5757,-2.5763,-2.5792,-2.5803,-2.5813,0,0,0,0,0,0,-2.5186,-2.5239,-2.5235,-2.5319,-2.5359,-2.5405,-2.5447,-2.5443,-2.549,-2.5486,-2.5499,-2.551,-2.5586,-2.5609,-2.557,-2.5701,-2.5667,-2.5677,-2.5684,-2.5695,-2.5703,-2.5696,-2.5544,0,0,0,0,0,-2.5201,-2.5254,-2.5296,-2.5366,-2.5387,-2.5414,-2.5444,-2.5451,-2.5492,-2.5509,-2.5538,-2.5578,-2.563,-2.5663,-2.5713,-2.5799,-2.5809,-2.5836,-2.5845,-2.5852,-2.586,-2.5908,-2.5921,-2.5785,-2.5785,-2.5785,0,0,-2.5231,-2.5266,-2.5298,-2.5371,-2.5403,-2.5457,-2.5428,-2.5486,-2.5526,-2.5517,-2.5591,-2.5614,-2.5659,-2.574,-2.5777,-2.5761,-2.59,-2.586,-2.5865,-2.5869,-2.5915,-2.5928,-2.594,-2.5789,-2.5789,-2.5788,0,0,-2.5314,-2.5346,-2.5408,-2.5441,-2.5489,-2.5507,-2.5522,-2.5569,-2.5584,-2.5658,-2.5653,-2.5701,-2.5789,-2.5822,-2.585,-2.5947,-2.594,-2.5962,-2.6007,-2.6054,-2.6065,-2.6074,-2.6109,-2.6121,-2.597,-2.597,-2.597,0,-2.5345,-2.5427,-2.544,-2.55,-2.5532,-2.5528,-2.5591,-2.5622,-2.5684,-2.5706,-2.5688,-2.5799,-2.5829,-2.5919,-2.5942,-2.5965,-2.5983,-2.5957,-2.6062,-2.6072,-2.6081,-2.6114,-2.6127,-2.5973,-2.5973,-2.5972,-2.5972,0,-2.5463,-2.552,-2.5565,-2.5626,-2.5664,-2.5724,-2.5747,-2.5783,-2.5786,-2.5806,-2.5881,-2.5917,-2.5975,-2.5996,-2.5999,-2.6086,-2.6075,-2.6059,-2.6025,-2.6096,-2.6128,-2.6141,-2.5976,-2.5975,-2.5975,-2.5974,0,0,-2.5562,-2.563,-2.5647,-2.5675,-2.5728,-2.5773,-2.5833,-2.589,-2.5921,-2.5964,-2.6016,-2.6091,-2.6077,-2.6109,-2.6116,-2.6157,-2.6232,-2.6136,-2.6138,-2.6154,-2.633,-2.6342,-2.6357,-2.6228,-2.623,-2.6232,-2.6327,0,-2.565,-2.5759,-2.5773,-2.5869,-2.5922,-2.5919,-2.5972,-2.6011,-2.6031,-2.6078,-2.61,-2.6153,-2.6131,-2.615,-2.619,-2.6214,-2.6268,-2.6208,-2.6276,-2.6278,-2.6265,-2.6374,-2.6386,-2.6474,-2.6339,-2.6341,-2.6343,0,-2.5768,-2.5816,-2.5918,-2.5965,-2.5988,-2.6036,-2.6089,-2.6135,-2.6178,-2.619,-2.6227,-2.6229,-2.6291,-2.6255,-2.6342,-2.6301,-2.6329,-2.6345,-2.6349,-2.6356,-2.6315,-2.6384,-2.6502,-2.6515,-2.6362,-2.6361,-2.6359,0,-2.5831,-2.592,-2.5993,-2.6017,-2.6074,-2.6108,-2.6133,-2.6174,-2.6208,-2.6254,-2.6276,-2.6329,-2.6358,-2.6399,-2.6415,-2.6387,-2.6501,-2.6466,-2.6513,-2.6512,-2.6537,-2.6535,-2.6662,-2.6555,-2.6554,-2.6554,-2.6554,0,-2.5929,-2.5991,-2.6022,-2.6067,-2.6137,-2.6152,-2.6221,-2.6245,-2.6282,-2.6331,-2.6331,-2.6377,-2.6395,-2.6444,-2.6457,-2.6527,-2.654,-2.6551,-2.6554,-2.6552,-2.6551,-2.6571,-2.6566,-2.6558,-2.6557,-2.6556,-2.6556,0,-2.6011,-2.6034,-2.6113,-2.6161,-2.6174,-2.6224,-2.6264,-2.6308,-2.6327,-2.6389,-2.6405,-2.6435,-2.6493,-2.6513,-2.6583,-2.6592,-2.6673,-2.6671,-2.6659,-2.666,-2.6706,-2.6701,-2.685,-2.687,-2.6749,-2.675,-2.6751,0,-2.6072,-2.612,-2.6173,-2.6207,-2.6234,-2.6287,-2.6322,-2.6339,-2.6375,-2.6429,-2.6465,-2.6523,-2.657,-2.6662,-2.669,-2.6743,-2.6742,-2.6791,-2.675,-2.6747,-2.6744,-2.6741,-2.6746,-2.6798,-2.68,-2.6801,-2.6801,0,-2.6179,-2.6188,-2.6238,-2.6293,-2.6335,-2.6378,-2.642,-2.6448,-2.6471,-2.6511,-2.6571,-2.6607,-2.6679,-2.6736,-2.6791,-2.6816,-2.6813,-2.6814,-2.6828,-2.6826,-2.6818,-2.6824,-2.668,-2.6811,-2.681,-2.6809,-2.6808,-2.6808,-2.6253,-2.6296,-2.634,-2.6397,-2.643,-2.647,-2.6514,-2.6539,-2.6589,-2.665,-2.6656,-2.6721,-2.6763,-2.6837,-2.6865,-2.6915,-2.6901,-2.6921,-2.6926,-2.6931,-2.6935,-2.6809,-2.6925,-2.6924,-2.6924,-2.6924,-2.6924,0,-2.636,-2.6389,-2.644,-2.65,-2.6544,-2.6538,-2.6585,-2.6622,-2.6679,-2.672,-2.6766,-2.6835,-2.6891,-2.6923,-2.6979,-2.7013,-2.7013,-2.7027,-2.7025,-2.7031,-2.6943,-2.6926,-2.7026,-2.7026,-2.7026,-2.7026,-2.7026,-2.7026,-2.6421,-2.6494,-2.6509,-2.6598,-2.6626,-2.669,-2.6718,-2.6754,-2.6787,-2.6864,-2.6911,-2.6932,-2.6969,-2.7028,-2.7079,-2.7087,-2.7108,-2.7123,-2.713,-2.7048,-2.7037,-2.7027,-2.7011,-2.7128,-2.7128,-2.7214,-2.7215,-2.7216]}]]